Regional Weather Roundup
Issued by NWS State College, PA

Home | Current Version | Previous Version | Text Only | Print | Product List | Glossary On
Versions: 1 2 3 4 5 6 7 8 9 10 11 12 13 14 15 16 17 18 19 20 21 22 23 24 25 26 27 28 29 30 31 32 33 34 35 36 37 38 39 40 41 42 43 44 45 46 47 48 49 50
000
ASUS41 KCTP 281910
RWRCTP

REGIONAL WEATHER ROUNDUP
NATIONAL WEATHER SERVICE STATE COLLEGE PA
300 PM EDT THU JUL 28 2016

Note: "fair" indicates few or no clouds below 12,000 feet with no
significant weather and/or obstructions to visibility.

* = STATION THAT DOES NOT REPORT PRECIPITATION /E.G. RAIN...SNOW...ETC/
    THUNDER OR FOG.

PAZ002>004-007>009-013>016-020>023-029>032-282000-
WESTERN PENNSYLVANIA

CITY           SKY/WX    TMP DP  RH WIND       PRES   REMARKS
ERIE           CLOUDY    82  69  64 NE9       29.89S
MEADVILLE      CLOUDY    73  63  70 VRB6      29.92S
FRANKLIN*      CLOUDY    70  64  83 N6        29.96R THUNDER
NEW CASTLE     LGT RAIN  76  69  79 SW6       29.93S
BEAVER COUNTY  CLOUDY    75  72  88 CALM      29.93F
BUTLER*        PTSUNNY   73  70  88 SW7       29.96S
PITTSBURGH INT LGT RAIN  73  69  87 S6        29.92F
PITTSBURGH     LGT RAIN  74  68  81 S9        29.93F
INDIANA*       NOT AVBL
LATROBE        LGT RAIN  73  73 100 W7        29.95S
WASHINGTON CO* PTSUNNY   70  66  88 CALM      29.95F
$$

PAZ004>006-010>012-017>019-024>028-033>037-041-042-045-046-049>053-282000-
CENTRAL PENNSYLVANIA

CITY           SKY/WX    TMP DP  RH WIND       PRES   REMARKS
BRADFORD       CLOUDY    81  58  45 NE5       29.96F
DUBOIS         PTSUNNY   77  66  68 SW6       29.95R
CLEARFIELD     PTSUNNY   79  63  57 SW9       29.95S
JOHNSTOWN      LGT RAIN  71  65  81 S6        29.98F
ALTOONA        LGT RAIN  72  70  93 CALM      29.96F
STATE COLLEGE  MOSUNNY   79  66  65 SW7       29.93S
WILLIAMSPORT   PTSUNNY   88  62  41 CALM      29.85F
SELINSGROVE    CLOUDY    87  72  60 CALM      29.87S
FT INDIANTOWN  PTSUNNY   91  70  49 SW7       29.85  HX  97
CAPITAL CITY   CLOUDY    89  69  51 N6        29.86S
HARRISBURG     CLOUDY    86  74  67 SE10G17   29.86R THUNDER
YORK           CLOUDY    81  71  71 SE15      29.88R
$$

PAZ038>040-043-044-047-048-054-055-060>062-067>071-282000-
EASTERN PENNSYLVANIA

CITY           SKY/WX    TMP DP  RH WIND       PRES   REMARKS
SCRANTON       MOSUNNY   88  65  46 W7        29.88S
MOUNT POCONO   MOSUNNY   83  62  49 S10G17    29.94F
ALLENTOWN      CLOUDY    90  64  42 S7        29.86S
QUAKERTOWN*    MOCLDY    88  66  48 CALM      29.88S
READING        RAIN      81  72  74 S8        29.86S
LANCASTER      CLOUDY    76  68  76 S14       29.87F
COATESVILLE    RAIN      72  70  94 SW7       29.93R
POTTSTOWN      LGT RAIN  78  75  90 CALM      29.89F FOG
BLUE BELL      CLOUDY    79  70  73 SW7       29.86S
DOYLESTOWN     PTSUNNY   83  69  62 CALM      29.86F
WILLOW GROVE   NOT AVBL
NORTH PHILA    CLOUDY    86  67  52 S5        29.88R
PHILADELPHIA   TSTM      77  74  90 SW20G32   29.90R VSB 1
$$




USA.gov is the U.S. government's official web portal to all federal, state and local government web resources and services.